Weather History for Jackson, WY

Change the Weather History Date:

Sunday, January 6, 2013

  Actual Average Record
Temperature  
Mean Temperature 0 °F -  
Max Temperature 10 °F 22 °F 42 °F (1969)
Min Temperature -11 °F -1 °F -36 °F (1979)
Degree Days  
Heating Degree Days 66    
Moisture  
Dew Point -5 °F    
Average Humidity 91    
Maximum Humidity 100    
Minimum Humidity 84    
Precipitation  
Precipitation 0.00 in - - ()
Sea Level Pressure  
Sea Level Pressure 30.14 in    
Wind  
Wind Speed 5 mph (NNE)    
Max Wind Speed 9 mph    
Max Gust Speed -    
Visibility 10 miles    
Events      
Averages and records for this station are not official NWS values.
T = Trace of Precipitation, MM = Missing Value Source: NWS Daily Summary

Daily Weather History Graph

Daily Weather History Graph

Search for Another Location

Airport:

Trip Planner

Search our weather history database for the weather conditions in past years. The results will help you decide how hot, cold, wet, or windy it might be!

Date:

Astronomy

Jan. 06, 2013 Rise Set
Actual Time 7:56 AM MST 5:02 PM MST
Civil Twilight 7:23 AM MST 5:34 PM MST
Nautical Twilight 6:47 AM MST 6:10 PM MST
Astronomical Twilight 6:13 AM MST 6:45 PM MST
Moon 2:10 AM MST (1/6) 12:35 PM MST (1/6)
Length of Visible Light 10h 10m
Length of Day
9h 05m
Waning Crescent, 32% of the Moon is Illuminated
Jan 6
Waning Crescent
Jan 11
New
Jan 18
First Quarter
Jan 26
Full
Feb 3
Last Quarter

Hourly Weather History & Observations

Time (MST) Temp. Windchill Dew Point Humidity Pressure Visibility Wind Dir Wind Speed Gust Speed Precip Events Conditions
12:15 AM -7.6 °F -20.6 °F -9.4 °F 92% 30.27 in 10.0 mi NNE 5.8 mph - N/A   Clear
12:55 AM -9.4 °F -22.7 °F -11.2 °F 92% 30.25 in 10.0 mi North 5.8 mph - N/A   Clear
1:15 AM -9.4 °F -20.9 °F -11.2 °F 92% 30.24 in 10.0 mi NNE 4.6 mph - N/A   Clear
1:35 AM -9.4 °F -22.7 °F -11.2 °F 92% 30.24 in 10.0 mi North 5.8 mph - N/A   Clear
1:55 AM -9.4 °F -24.3 °F -11.2 °F 92% 30.24 in 10.0 mi North 6.9 mph - N/A   Clear
2:15 AM -9.4 °F -22.7 °F -11.2 °F 92% 30.23 in 10.0 mi North 5.8 mph - N/A   Clear
2:35 AM -9.4 °F -20.9 °F -11.2 °F 92% 30.23 in 10.0 mi North 4.6 mph - N/A   Clear
2:55 AM -7.6 °F -16.5 °F -11.2 °F 84% 30.23 in 10.0 mi NNE 3.5 mph - N/A   Clear
3:15 AM -7.6 °F -18.8 °F -9.4 °F 92% 30.22 in 10.0 mi NNE 4.6 mph - N/A   Clear
3:35 AM -9.4 °F -20.9 °F -11.2 °F 92% 30.22 in 10.0 mi North 4.6 mph - N/A   Clear
3:55 AM -9.4 °F -24.3 °F -11.2 °F 92% 30.21 in 10.0 mi North 6.9 mph - N/A   Clear
4:35 AM -11.2 °F -29.0 °F -13.0 °F 92% 30.21 in 10.0 mi North 9.2 mph - N/A   Clear
4:55 AM -9.4 °F -26.8 °F -11.2 °F 92% 30.20 in 10.0 mi North 9.2 mph - N/A   Clear
5:15 AM -11.2 °F -24.8 °F -13.0 °F 92% 30.20 in 10.0 mi NNE 5.8 mph - N/A   Clear
5:35 AM -9.4 °F -18.6 °F -11.2 °F 92% 30.19 in 10.0 mi NE 3.5 mph - N/A   Clear
5:55 AM -7.6 °F -20.6 °F -11.2 °F 84% 30.19 in 10.0 mi NNE 5.8 mph - N/A   Clear
6:15 AM -9.4 °F -20.9 °F -11.2 °F 92% 30.19 in 10.0 mi North 4.6 mph - N/A   Clear
6:35 AM -9.4 °F -24.3 °F -11.2 °F 92% 30.19 in 10.0 mi NNE 6.9 mph - N/A   Clear
7:54 AM -5.8 °F -14.5 °F -7.6 °F 92% 30.18 in 10.0 mi North 3.5 mph - N/A   Scattered Clouds
8:52 AM -7.6 °F - -9.4 °F 92% 30.18 in 10.0 mi Calm Calm - N/A   Scattered Clouds
9:51 AM -0.4 °F - -2.2 °F 92% 30.17 in 10.0 mi Calm Calm - N/A   Clear
10:54 AM 1.4 °F - -0.4 °F 92% 30.16 in 10.0 mi Calm Calm - N/A   Clear
11:51 AM 3.2 °F - 1.4 °F 92% 30.12 in 10.0 mi Calm Calm - N/A   Clear
12:51 PM 6.8 °F - 3.2 °F 85% 30.08 in 10.0 mi Calm Calm - N/A   Overcast
1:53 PM 8.6 °F - 5.0 °F 85% 30.04 in 10.0 mi Calm Calm - N/A   Partly Cloudy
2:55 PM 10.4 °F - 6.8 °F 85% 30.04 in 10.0 mi Calm Calm - N/A   Overcast
3:51 PM 10.4 °F - 6.8 °F 85% 30.03 in 10.0 mi Calm Calm - N/A   Scattered Clouds
4:53 PM 10.4 °F - 6.8 °F 85% 30.03 in 10.0 mi Calm Calm - N/A   Overcast
5:58 PM 6.8 °F - 3.2 °F 85% 30.03 in 10.0 mi Calm Calm - N/A   Clear
7:51 PM 6.8 °F - 5.0 °F 92% 30.04 in 10.0 mi Calm Calm - N/A   Mostly Cloudy
8:51 PM 3.2 °F - 1.4 °F 92% 30.05 in 10.0 mi Calm Calm - N/A   Partly Cloudy
8:55 PM 3.2 °F -7.8 °F 1.4 °F 92% 30.06 in 10.0 mi NNW 5.8 mph - N/A   Partly Cloudy
9:15 PM -0.4 °F -12.0 °F -2.2 °F 92% 30.05 in 10.0 mi North 5.8 mph - N/A   Clear
9:35 PM -0.4 °F -14.7 °F -0.4 °F 100% 30.05 in 10.0 mi North 8.1 mph - N/A   Clear
9:55 PM -0.4 °F -13.4 °F -2.2 °F 92% 30.04 in 10.0 mi ENE 6.9 mph - N/A   Clear
10:15 PM -2.2 °F -15.6 °F -2.2 °F 100% 30.05 in 10.0 mi North 6.9 mph - N/A   Clear
10:35 PM -2.2 °F -10.4 °F -5.8 °F 85% 30.05 in 10.0 mi NE 3.5 mph - N/A   Clear
10:55 PM -0.4 °F - -0.4 °F 100% 30.06 in 10.0 mi Calm Calm - N/A   Clear
11:15 PM -2.2 °F -14.2 °F -5.8 °F 85% 30.06 in 10.0 mi North 5.8 mph - N/A   Clear
11:35 PM -5.8 °F -18.4 °F -7.6 °F 92% 30.06 in 10.0 mi NNE 5.8 mph - N/A   Clear
11:55 PM -7.6 °F -23.4 °F -7.6 °F 100% 30.07 in 10.0 mi North 8.1 mph - N/A   Clear